Weather History for Tirstrup, Denmark

Change the Weather History Date:

Sunday, April 27, 2014

  Actual Average Record
Temperature  
Mean Temperature 52 °F -  
Max Temperature 65 °F 59 °F 66 °F (2007)
Min Temperature 38 °F 40 °F 30 °F (1997)
Degree Days  
Heating Degree Days 14    
Growing Degree Days 2 (Base 50)    
Moisture  
Dew Point 37 °F    
Average Humidity 54    
Maximum Humidity 87    
Minimum Humidity 21    
Precipitation  
Precipitation 0.00 in - - ()
Sea Level Pressure  
Sea Level Pressure 29.93 in    
Wind  
Wind Speed 5 mph ()    
Max Wind Speed 15 mph    
Max Gust Speed 29 mph    
Visibility 7.8 miles    
Events Fog    
Averages and records for this station are not official NWS values.
T = Trace of Precipitation, MM = Missing Value Source: Averaged Metar Reports

Daily Weather History Graph

Daily Weather History Graph

Search for Another Location

Airport:

Trip Planner

Search our weather history database for the weather conditions in past years. The results will help you decide how hot, cold, wet, or windy it might be!

Date:

Astronomy

Apr. 27, 2014 Rise Set
Actual Time 5:42 AM CEST 8:49 PM CEST
Civil Twilight 4:58 AM CEST 9:33 PM CEST
Nautical Twilight 3:59 AM CEST 10:33 PM CEST
Astronomical Twilight 2:34 AM CEST 12:01 AM CEST
Moon 4:58 AM CEST (4/27) 6:45 PM CEST (4/27)
Length of Visible Light 16h 35m
Length of Day
15h 07m
Waning Crescent, 4% of the Moon is Illuminated
Apr 27
Waning Crescent
Apr 29
New
May 7
First Quarter
May 14
Full
May 21
Last Quarter

Hourly Weather History & Observations

Time (CEST) Temp. Windchill Dew Point Humidity Pressure Visibility Wind Dir Wind Speed Gust Speed Precip Events Conditions
12:00 AM 47 °F - 41 °F 71% 29.95 in 8 mi East 4.6 mph - -  
12:20 AM 46.4 °F 45.2 °F 41.0 °F 81% 29.95 in 6.2 mi ESE 3.5 mph - N/A   Unknown
12:50 AM 46.4 °F 44.3 °F 39.2 °F 76% 29.95 in 6.2 mi SE 4.6 mph - N/A   Unknown
1:00 AM 47 °F - 39 °F 65% 29.95 in 16 mi ESE 4.6 mph - -  
1:20 AM 46.4 °F 45.2 °F 39.2 °F 76% 29.95 in 6.2 mi ESE 3.5 mph - N/A   Unknown
1:50 AM 46.4 °F 45.2 °F 37.4 °F 71% 29.95 in 6.2 mi ESE 3.5 mph - N/A   Unknown
2:00 AM 47 °F - 38 °F 61% 29.94 in 19 mi ESE 3.5 mph - -  
2:20 AM 44.6 °F - 37.4 °F 76% 29.92 in 6.2 mi SE 2.3 mph - N/A   Unknown
2:50 AM 42.8 °F - 33.8 °F 70% 29.92 in 6.2 mi ESE 2.3 mph - N/A   Unknown
3:00 AM 43 °F - 35 °F 65% 29.94 in 19 mi East 2.3 mph - -  
3:20 AM 42.8 °F - 35.6 °F 76% 29.92 in 6.2 mi Calm Calm - N/A   Unknown
3:50 AM 42.8 °F - 37.4 °F 81% 29.92 in 6.2 mi NNE 1.2 mph 26.5 mph N/A   Unknown
4:00 AM 42 °F - 36 °F 72% 29.94 in 19 mi NE 1.2 mph - -  
4:20 AM 41.0 °F - 35.6 °F 81% 29.92 in 6.2 mi North 1.2 mph - N/A   Unknown
4:50 AM 41.0 °F - 35.6 °F 81% 29.92 in 6.2 mi NW 1.2 mph - N/A   Unknown
5:00 AM 40 °F - 36 °F 80% 29.93 in 8 mi WNW 1.2 mph - -  
5:20 AM 41.0 °F - 35.6 °F 81% 29.92 in 5.0 mi NE 1.2 mph - N/A   Unknown
5:50 AM 39.2 °F - 35.6 °F 87% 29.92 in 0.3 mi Calm Calm - N/A Fog Fog
6:00 AM 39 °F - 35 °F 80% 29.93 in 1 mi NW 1.2 mph - - Fog Fog
6:20 AM 39.2 °F - 35.6 °F 87% 29.92 in 3.7 mi NW 1.2 mph 28.8 mph N/A   Unknown
6:50 AM 41.0 °F - 37.4 °F 87% 29.92 in 6.2 mi NNW 1.2 mph - N/A   Unknown
7:00 AM 42 °F - 39 °F 83% 29.94 in 9 mi North 1.2 mph - -  
7:20 AM 46.4 °F 44.3 °F 41.0 °F 81% 29.92 in 6.2 mi NE 4.6 mph - N/A   Unknown
7:50 AM 50.0 °F - 41.0 °F 71% 29.92 in 6.2 mi ENE 5.8 mph - N/A   Unknown
8:00 AM 50 °F - 41 °F 63% 29.93 in 19 mi ENE 5.8 mph - -  
8:20 AM 53.6 °F - 37.4 °F 54% 29.92 in 6.2 mi East 9.2 mph - N/A   Partly Cloudy
8:50 AM 55.4 °F - 33.8 °F 44% 29.92 in 6.2 mi East 13.8 mph - N/A   Unknown
9:00 AM 55 °F - 34 °F 32% 29.93 in 22 mi East 15.0 mph - -  
9:20 AM 55.4 °F - 33.8 °F 44% 29.92 in 6.2 mi East 15.0 mph - N/A   Unknown
9:50 AM 57.2 °F - 33.8 °F 41% 29.92 in 6.2 mi East 15.0 mph - N/A   Unknown
10:00 AM 56 °F - 34 °F 31% 29.92 in 22 mi East 15.0 mph - -  
11:00 AM - - - %  in - Calm Calm - -  
12:50 PM 60.8 °F - 37.4 °F 42% 29.92 in 6.2 mi East 12.7 mph - N/A   Unknown
1:00 PM 61 °F - 37 °F 29% 29.94 in 22 mi East 11.5 mph - -   Scattered Clouds
1:20 PM 60.8 °F - 37.4 °F 42% 29.92 in 6.2 mi East 10.4 mph - N/A   Partly Cloudy
1:50 PM 62.6 °F - 39.2 °F 42% 29.92 in 6.2 mi East 10.4 mph - N/A   Unknown
2:00 PM 63 °F - 38 °F 27% 29.93 in 22 mi East 11.5 mph - -  
2:20 PM 62.6 °F - 37.4 °F 39% 29.92 in 6.2 mi East 11.5 mph - N/A   Unknown
2:50 PM 62.6 °F - 37.4 °F 39% 29.92 in 6.2 mi East 11.5 mph - N/A   Unknown
3:00 PM 63 °F - 37 °F 27% 29.93 in 19 mi ENE 10.4 mph - -  
3:20 PM 64.4 °F - 35.6 °F 34% 29.92 in 6.2 mi East 11.5 mph - N/A   Unknown
3:50 PM 64.4 °F - 35.6 °F 34% 29.92 in 6.2 mi ENE 9.2 mph - N/A   Unknown
4:00 PM 65 °F - 36 °F 22% 29.92 in 22 mi ENE 9.2 mph - -  
4:20 PM 64.4 °F - 35.6 °F 34% 29.92 in 6.2 mi East 9.2 mph - N/A   Unknown
4:50 PM 66.2 °F - 35.6 °F 32% 29.92 in - ENE 9.2 mph - N/A   Clear
5:00 PM 65 °F - 35 °F 22% 29.91 in 25 mi East 8.1 mph - -  
5:20 PM 64.4 °F - 35.6 °F 34% 29.92 in - ENE 8.1 mph - N/A   Clear
5:50 PM 64.4 °F - 35.6 °F 34% 29.92 in - ENE 9.2 mph - N/A   Clear
6:00 PM 65 °F - 35 °F 21% 29.91 in 22 mi ENE 9.2 mph - -  
6:20 PM 64.4 °F - 35.6 °F 34% 29.92 in - ENE 8.1 mph - N/A   Clear
6:50 PM 64.4 °F - 35.6 °F 34% 29.92 in - ENE 8.1 mph - N/A   Clear
7:00 PM 64 °F - 36 °F 24% 29.91 in 22 mi ENE 6.9 mph - -  
7:20 PM 64.4 °F - 39.2 °F 40% 29.92 in - ENE 5.8 mph - N/A   Clear
7:50 PM 62.6 °F - 39.2 °F 42% 29.92 in - NE 6.9 mph - N/A   Clear
8:00 PM 62 °F - 39 °F 31% 29.92 in 22 mi NE 5.8 mph - -  
8:20 PM 60.8 °F - 39.2 °F 45% 29.92 in - East 2.3 mph - N/A   Clear
8:50 PM 57.2 °F - 39.2 °F 51% 29.92 in - ENE 5.8 mph - N/A   Clear
9:00 PM 57 °F - 39 °F 39% 29.94 in 31 mi East 4.6 mph - -  
9:20 PM 55.4 °F - 37.4 °F 51% 29.95 in - SE 1.2 mph 20.7 mph N/A   Clear
9:50 PM 53.6 °F - 37.4 °F 54% 29.95 in 6.2 mi SE 1.2 mph - N/A   Unknown
10:00 PM 53 °F - 37 °F 43% 29.95 in 31 mi SE 2.3 mph - -  
10:20 PM 51.8 °F - 37.4 °F 58% 29.95 in 6.2 mi SSE 1.2 mph - N/A   Unknown
10:50 PM 50.0 °F - 39.2 °F 66% 29.95 in - SE 1.2 mph - N/A   Clear
11:00 PM 50 °F - 38 °F 53% 29.96 in 31 mi ESE 1.2 mph - -  
11:20 PM 50.0 °F - 39.2 °F 66% 29.95 in 6.2 mi ESE 2.3 mph - N/A   Unknown
11:50 PM 46.4 °F - 37.4 °F 71% 29.95 in 6.2 mi Calm Calm - N/A   Unknown